Location: Orange Harbor Mobile Home Park
(26.6923°N, 81.7937°W)
Time: 22:48:56
(UTC+00:00)

ADEOS Rocket - Pass Details

Date: 19 September 2020
Orbit: 858 x 1307 km, 98.7° (Epoch: 25 October)

Event Time Altitude Azimuth Distance (km) Brightness Sun altitude
Rises 10:06:22 0° 170° (S) 4,182 6.3 -16.0°
Reaches altitude 10° 10:09:07 10° 172° (S) 3,172 5.7 -15.4°
Maximum altitude 10:16:23 75° 257° (WSW) 1,178 3.3 -13.8°
Drops below altitude 10° 10:22:58 10° 343° (NNW) 2,877 5.4 -12.3°
Sets 10:25:22 0° 345° (NNW) 3,772 6.0 -11.8°
